World > North America > United States > New York > Center Cambridge

Center Cambridge, NY Hourly Weather Conditions

Feedback E-mail the Weather

Quick WX

Center Cambridge, NY Weather Maps

°F °C°F °C
Center Cambridge Weather Map
UTC Time: 11/27/2022, 14:57
Your Time:

Center Cambridge, NY Regional Weather

Expires:202211271500;;893162
ASUS41 KALY 271410
RWRALY

NEW YORK STATE HOURLY WEATHER ROUNDUP
NATIONAL WEATHER SERVICE ALBANY NY
900 AM EST SUN NOV 27 2022

NOTE: "FAIR" INDICATES FEW OR NO CLOUDS BELOW 12,000 FEET WITH NO
SIGNIFICANT WEATHER AND/OR NO OBSTRUCTIONS TO VISIBILITY.


NYZ032-033-038>043-046>054-057>066-NYZ062>081-082-084-271500-
EAST

  
CITY           SKY/WX    TMP DP  RH WIND       PRES   REMARKS
ALBANY         PTSUNNY   42  28  57 S6        29.81F                  
GLENS FALLS    SUNNY     37  31  78 CALM      29.80F                  
POUGHKEEPSIE   MOSUNNY   40  32  73 CALM      29.82F                  
NEWBURGH       MOSUNNY   39  30  70 CALM      29.82F                  
MONTGOMERY     MOSUNNY   37  30  75 CALM      29.81F                  
WHITE PLAINS   MOSUNNY   45  33  63 S3        29.83F                  
ISLIP          CLOUDY    50  41  71 SW7       29.86F                  
NEW YORK CITY  PTSUNNY   50  31  48 S9        29.85F                  
CENTRAL PARK   SUNNY     51  35  54 MISG      29.88S                  
$$


SKY/WX - Weather  TMP - Temperature  DP - Dew Point  RH - Humidity
WIND - Wind Direction/Speed PRES - Barometric Pressure VSB - Visibility
WCI - Wind Chill Index E13G22 Wind - East Wind 13 mph/Gusts of 22 mph

Trending Headlines

Trending Entertainment Headlines

Center Cambridge Radar Loop

Use the map search tool if you want to place a location marker on the radar map...

Center Cambridge Quick Facts

National Two Day Weather Forecast


E-mail the Center Cambridge Weather Forecast

Voice your opinion or tell us about page issues...